Weather History for St. Petersburg Airport, FL

Change the Weather History Date:

Monday, September 16, 2013

  Actual Average Record
Temperature  
Mean Temperature 83 °F -  
Max Temperature 91 °F 89 °F 95 °F (2007)
Min Temperature 75 °F 76 °F 66 °F (2001)
Cooling Degree Days 18    
Growing Degree Days 33 (Base 50)    
Moisture  
Dew Point 73 °F    
Average Humidity 78    
Maximum Humidity 91    
Minimum Humidity 50    
Precipitation  
Precipitation 0.01 in - - ()
Sea Level Pressure  
Sea Level Pressure 30.03 in    
Wind  
Wind Speed 7 mph (East)    
Max Wind Speed 13 mph    
Max Gust Speed 22 mph    
Visibility 10 miles    
Events Rain , Thunderstorm    
Averages and records for this station are not official NWS values.
T = Trace of Precipitation, MM = Missing Value Source: NWS Daily Summary

Daily Weather History Graph

Daily Weather History Graph

Search for Another Location

Airport:

Trip Planner

Search our weather history database for the weather conditions in past years. The results will help you decide how hot, cold, wet, or windy it might be!

Date:

Astronomy

Sep. 16, 2013 Rise Set
Actual Time 7:16 AM EDT 7:34 PM EDT
Civil Twilight 6:53 AM EDT 7:57 PM EDT
Nautical Twilight 6:25 AM EDT 8:24 PM EDT
Astronomical Twilight 5:57 AM EDT 8:52 PM EDT
Moon 5:32 PM EDT (9/16) 4:14 AM EDT (9/16)
Length of Visible Light 13h 04m
Length of Day
12h 17m
Waxing Gibbous, 90% of the Moon is Illuminated
Sep 16
Waxing Gibbous
Sep 19
Full
Sep 26
Last Quarter
Oct 4
New
Oct 11
First Quarter

Hourly Weather History & Observations

Time (EDT) Temp. Heat Index Dew Point Humidity Pressure Visibility Wind Dir Wind Speed Gust Speed Precip Events Conditions
12:53 AM 78.1 °F - 73.9 °F 87% 30.05 in 10.0 mi East 5.8 mph - N/A   Clear
1:53 AM 78.1 °F - 73.9 °F 87% 30.04 in 10.0 mi NE 10.4 mph - N/A   Clear
2:53 AM 77.0 °F - 73.9 °F 90% 30.05 in 10.0 mi East 9.2 mph - N/A   Partly Cloudy
3:53 AM 77.0 °F - 73.9 °F 90% 30.03 in 10.0 mi ENE 5.8 mph - N/A   Clear
4:53 AM 75.9 °F - 73.0 °F 91% 30.03 in 10.0 mi East 5.8 mph - N/A   Clear
5:53 AM 75.9 °F - 73.0 °F 91% 30.04 in 10.0 mi ENE 3.5 mph - N/A   Clear
6:53 AM 75.9 °F - 73.0 °F 91% 30.04 in 10.0 mi NE 5.8 mph - N/A   Clear
7:53 AM 75.9 °F - 73.0 °F 91% 30.07 in 10.0 mi NE 8.1 mph - N/A   Clear
8:53 AM 79.0 °F - 73.0 °F 82% 30.08 in 10.0 mi East 9.2 mph - N/A   Clear
9:53 AM 82.0 °F 87.9 °F 73.9 °F 76% 30.07 in 10.0 mi ENE 8.1 mph - N/A   Clear
10:53 AM 84.0 °F 90.2 °F 73.0 °F 69% 30.06 in 10.0 mi ENE 10.4 mph - N/A   Clear
11:53 AM 87.1 °F 94.5 °F 73.0 °F 63% 30.06 in 10.0 mi East 8.1 mph - N/A   Clear
12:53 PM 89.1 °F 96.0 °F 72.0 °F 57% 30.05 in 10.0 mi ENE 10.4 mph - N/A   Partly Cloudy
1:53 PM 90.0 °F 97.9 °F 73.0 °F 57% 30.01 in 10.0 mi East 6.9 mph - N/A   Clear
2:53 PM 91.0 °F 98.2 °F 72.0 °F 53% 30.01 in 10.0 mi ESE 9.2 mph - N/A   Scattered Clouds
3:53 PM 90.0 °F 94.5 °F 69.1 °F 50% 29.99 in 10.0 mi ESE 12.7 mph 20.7 mph N/A   Scattered Clouds
4:15 PM 89.6 °F 96.2 °F 71.6 °F 55% 29.98 in 10.0 mi SE 3.5 mph - 0.00 in Rain , Thunderstorm Light Rain
4:53 PM 79.0 °F - 73.0 °F 82% 30.00 in 10.0 mi SE 8.1 mph 21.9 mph 0.01 in Rain , Thunderstorm Light Thunderstorms and Rain
5:27 PM 78.8 °F - 73.4 °F 83% 30.02 in 10.0 mi South 6.9 mph - 0.00 in Rain Light Rain
5:36 PM 78.8 °F - 73.4 °F 83% 30.02 in 10.0 mi SSW 9.2 mph - 0.00 in Thunderstorm Overcast
5:53 PM 78.1 °F - 73.0 °F 84% 30.01 in 10.0 mi South 5.8 mph - 0.00 in   Scattered Clouds
6:53 PM 78.1 °F - 73.9 °F 87% 30.02 in 10.0 mi Calm Calm - N/A   Clear
7:53 PM 79.0 °F - 72.0 °F 79% 30.00 in 10.0 mi Calm Calm - N/A   Clear
8:53 PM 79.0 °F - 72.0 °F 79% 30.01 in 10.0 mi East 4.6 mph - N/A   Clear
9:53 PM 79.0 °F - 71.1 °F 77% 30.04 in 10.0 mi East 6.9 mph - N/A   Clear
10:53 PM 78.1 °F - 72.0 °F 81% 30.04 in 10.0 mi East 5.8 mph - N/A   Clear
11:53 PM 77.0 °F - 72.0 °F 84% 30.04 in 10.0 mi East 5.8 mph - N/A   Clear